Погода в Ричмонде

США     37°33′22″N   77°27′37″W
темп.,
°C
ветер,
м/с
пор.,
м/с
влажн.,
%
обл.,
%
осадки,
мм/ч
давл.,
гПа
погр.,
м
22 апреля, чт
чт2223:00+7сз511514 0.0 10161579
02:00+4зсз410531 0.0 10181240
05:00+3з38560 0.0 1019493
08:00+4з410530 0.0 1020735
11:00+10зсз593287 0.0 10192273
14:00+13зсз61122100 0.0 10183532
17:00+13сз6113089 0.0 10172711
20:00+9сз25435 0.0 1018222
23 апреля, пт
пт2323:00+7зсз310545 0.0 1021482
02:00+5зсз27620 0.0 1022212
05:00+4з26680 0.0 1022156
08:00+6з365986 0.0 1024234
11:00+12зсз2432100 0.0 10231316
14:00+15з3427100 0.0 10211761
17:00+17зсз3527100 0.0 10202076
20:00+13ююз22455 0.0 102033
24 апреля, сб
сб2423:00+10ююз26513 0.0 1021128
02:00+8зюз11643 0.0 102025
05:00+7ю237174 0.0 102082
08:00+10юз1364100 0.0 1020152
11:00+16ю3446100 0.0 1018640
14:00+17ююз5846100 0.0 10171180
17:00+12юв1390100 1.3 1015253
20:00+12вюв41397100 3.0 1011881
25 апреля, вс
вс2523:00+14ююв61795100 1.1 10061224
02:00+14ююз3119769 2.2 1004684
05:00+12з6139324 0.4 1004713
08:00+12зсз5128319 0.4 10071081
11:00+17сз51055100 0.0 10091626
14:00+19сз394589 0.0 10092057
17:00+20зсз684129 0.0 10101830
20:00+15сз3856100 0.0 1013525
26 апреля, пн
пн2623:00+12с396465 0.0 1016492
02:00+10с4106150 0.0 1018715
05:00+7с311610 0.0 1019557
08:00+8с410540 0.0 1022482
11:00+15ссз35330 0.0 10221123
14:00+19сз24284 0.0 10201610
17:00+20сз24300 0.0 10181730
20:00+16в11460 0.0 101913